Location: Beneden-Haastrecht
(52.0012°N, 4.7557°E)
Time: 03:12:33
(UTC+00:00)

SL-08 RB Rocket - Pass Details

Date: 24 October 2020
Orbit: 648 x 683 km, 97.8° (Epoch: 24 November)

Event Time Altitude Azimuth Distance (km) Brightness Sun altitude
Exits shadow 19:03:10 88° 86° (E) 658 3.5 -24.5°
Maximum altitude 19:03:10 88° 76° (ENE) 658 3.5 -24.5°
Drops below altitude 10° 19:07:42 10° 346° (NNW) 2,071 6.5 -25.2°
Sets 19:09:56 0° 347° (NNW) 2,991 7.4 -25.5°
